Date,TemperatureHighF,TemperatureAvgF,TemperatureLowF,DewpointHighF,DewpointAvgF,DewpointLowF,HumidityHigh,HumidityAvg,HumidityLow,PressureMaxIn,PressureMinIn,WindSpeedMaxMPH,WindSpeedAvgMPH,GustSpeedMaxMPH,PrecipitationSumIn
2013-3-1,29.1,25.8,23.9,22.8,18.7,16.5,79,74,69,30.08,29.93,35,13,35,0.00
2013-3-2,26.1,24.0,22.5,18.7,16.3,13.4,80,72,65,30.05,30.02,28,11,28,0.00
2013-3-3,31.3,22.6,15.8,15.3,11.3,7.3,77,62,44,30.02,29.96,33,10,33,0.00
2013-3-4,36.9,24.6,13.5,16.0,10.6,6.7,80,57,40,30.11,30.02,20,6,20,0.00
2013-3-5,39.4,28.2,19.9,21.1,16.6,8.1,79,62,45,30.11,29.81,26,6,26,0.00
2013-3-6,43.0,33.0,25.7,29.1,24.0,19.2,85,70,52,30.16,29.81,26,7,26,0.00
2013-3-7,35.2,31.9,23.9,30.2,22.9,12.6,88,70,52,30.37,30.16,26,8,26,0.00
2013-3-8,47.7,32.2,21.4,25.4,18.7,13.0,79,59,40,30.46,30.34,17,4,17,0.00
2013-3-9,45.5,34.2,24.4,31.2,24.2,18.3,86,67,48,30.40,30.02,25,3,25,0.00
2013-3-10,60.6,47.8,34.7,41.6,33.9,27.6,78,60,41,30.02,29.81,30,6,30,0.00
2013-3-11,54.0,48.0,36.9,48.5,41.7,29.7,97,80,53,29.81,29.49,47,11,47,0.31
2013-3-12,36.7,33.5,28.9,31.7,27.0,22.6,88,77,64,29.90,29.66,30,9,30,0.00
2013-3-13,31.1,28.0,24.1,25.6,16.6,8.6,86,63,44,30.14,29.84,43,14,43,0.00
2013-3-14,41.9,30.2,20.3,18.6,12.6,7.2,67,48,38,30.22,30.05,32,9,32,0.04
2013-3-15,38.5,34.1,30.7,31.6,25.6,14.6,91,72,47,30.05,29.84,31,7,31,0.04
2013-3-16,33.4,28.6,23.4,31.4,24.1,12.6,95,84,61,30.02,29.75,12,0,12,0.00
2013-3-17,36.7,27.1,19.8,20.2,13.0,7.7,77,56,41,30.22,29.99,17,2,17,0.12
2013-3-18,34.3,29.1,20.8,33.4,23.8,8.2,97,81,57,30.16,29.54,26,7,26,0.08
2013-3-19,33.8,26.1,21.7,32.0,16.3,10.7,93,66,54,29.90,29.60,30,1,30,0.00
2013-3-20,28.8,23.9,16.7,13.0,9.5,4.4,60,54,45,29.90,29.87,39,5,39,0.00
2013-3-21,31.3,23.1,14.4,22.4,14.4,5.1,81,69,53,29.90,29.81,35,12,35,0.00
2013-3-22,39.6,30.2,24.8,18.8,15.2,11.7,66,54,42,29.99,29.90,34,12,34,0.00
2013-3-23,40.5,30.4,22.8,23.7,18.7,15.6,84,63,44,30.08,29.99,22,7,22,0.00
2013-3-24,37.0,30.0,23.0,26.2,19.5,14.7,81,66,45,30.05,29.63,26,5,26,0.00
2013-3-25,40.8,34.3,30.6,25.4,21.9,19.4,72,61,49,29.87,29.54,36,10,36,0.00
2013-3-26,45.1,36.5,32.5,28.4,25.0,22.3,78,63,43,30.08,29.87,33,12,33,0.00
2013-3-27,46.9,38.0,29.1,28.1,22.8,19.7,78,56,38,30.16,30.08,39,14,39,0.00
2013-3-28,52.9,40.5,29.8,25.3,21.4,17.5,70,47,33,30.22,30.16,30,10,30,0.00
2013-3-29,54.3,41.3,30.6,23.7,19.0,14.6,56,42,29,30.25,30.16,21,7,21,0.00
2013-3-30,56.8,42.7,28.2,26.4,20.6,15.0,65,43,27,30.19,29.93,26,4,26,0.00
2013-3-31,59.0,44.9,34.5,42.7,30.0,19.8,84,58,34,29.93,29.60,34,6,34,0.00